Location: Leiter
(44.7178°N, 106.2687°W)
Time: 23:41:26
(UTC+00:00)

DX 1 - Pass Details

Date: 06 July 2022
Orbit: 616 x 630 km, 98.4° (Epoch: 18 August)

Event Time Altitude Azimuth Distance (km) Brightness Sun altitude
Rises 04:42:15 0° 9° (N) 2,929 ? -14.6°
Reaches altitude 10° 04:44:29 10° 6° (N) 2,016 ? -14.9°
Maximum altitude 04:48:46 57° 288° (WNW) 744 ? -15.3°
Drops below altitude 10° 04:53:01 10° 210° (SSW) 1,993 ? -15.7°
Enters shadow 04:53:47 - 208° (SSW) 2,302 ? -15.8°
